Hourly Weather Dziedzice

Today, 8 May, Saturday

Time Temperature Precipitation Wind Pressure Humidity
00:00 +1°C° 0 mm 3 mps 746 mmHg 88%
01:00 +1°C° 0 mm 3 mps 746 mmHg 87%
02:00 +1°C° 0 mm 3 mps 746 mmHg 87%
03:00 +1°C° 0 mm 3 mps 747 mmHg 87%
04:00 +1°C° 0 mm 2 mps 747 mmHg 87%
05:00 +2°C° 0 mm 3 mps 747 mmHg 80%
06:00 +4°C° 0 mm 3 mps 748 mmHg 74%
07:00 +6°C° 0 mm 4 mps 748 mmHg 67%
08:00 +7°C° 0 mm 4 mps 748 mmHg 61%
09:00 +8°C° 0 mm 5 mps 748 mmHg 55%
10:00 +10°C° 0 mm 5 mps 748 mmHg 49%
11:00 +10°C° 0 mm 5 mps 748 mmHg 48%
12:00 +12°C° 0 mm 4 mps 748 mmHg 47%
13:00 +12°C° 0 mm 4 mps 748 mmHg 47%
14:00 +12°C° 0.1 mm 4 mps 748 mmHg 49%
15:00 +12°C° 0.1 mm 3 mps 748 mmHg 51%
16:00 +12°C° 0.1 mm 3 mps 747 mmHg 53%
17:00 +10°C° 0 mm 2 mps 748 mmHg 60%
18:00 +10°C° 0 mm 1 mps 748 mmHg 66%
19:00 +8°C° 0 mm 0 mps 748 mmHg 73%
20:00 +8°C° 0 mm 1 mps 748 mmHg 74%
21:00 +6°C° 0 mm 2 mps 748 mmHg 76%
22:00 +5°C° 0 mm 2 mps 748 mmHg 77%
23:00 +4°C° 0 mm 3 mps 748 mmHg 77%

Tomorrow, 9 May, Sunday

Time Temperature Precipitation Wind Pressure Humidity
00:00 +4°C° 0 mm 3 mps 748 mmHg 76%
01:00 +4°C° 0 mm 3 mps 748 mmHg 75%
02:00 +4°C° 0 mm 3 mps 747 mmHg 74%
03:00 +4°C° 0 mm 3 mps 747 mmHg 73%
04:00 +4°C° 0 mm 4 mps 747 mmHg 72%
05:00 +6°C° 0 mm 4 mps 747 mmHg 69%
06:00 +8°C° 0 mm 5 mps 747 mmHg 67%
07:00 +9°C° 0 mm 5 mps 747 mmHg 64%
08:00 +12°C° 0 mm 5 mps 746 mmHg 60%
09:00 +14°C° 0 mm 5 mps 746 mmHg 56%
10:00 +16°C° 0 mm 6 mps 746 mmHg 52%
11:00 +17°C° 0 mm 6 mps 746 mmHg 52%
12:00 +19°C° 0 mm 6 mps 746 mmHg 51%
13:00 +20°C° 0 mm 6 mps 746 mmHg 50%
14:00 +20°C° 0 mm 6 mps 746 mmHg 52%
15:00 +20°C° 0 mm 6 mps 745 mmHg 55%
16:00 +20°C° 0 mm 6 mps 745 mmHg 57%
17:00 +17°C° 0 mm 6 mps 745 mmHg 59%
18:00 +15°C° 0 mm 6 mps 745 mmHg 61%
19:00 +14°C° 0 mm 6 mps 745 mmHg 64%
20:00 +13°C° 0 mm 6 mps 745 mmHg 63%
21:00 +13°C° 0 mm 6 mps 745 mmHg 62%
22:00 +11°C° 0 mm 6 mps 745 mmHg 61%
23:00 +12°C° 0 mm 5 mps 745 mmHg 62%

Day after tomorrow, 10 May, Monday

Time Temperature Precipitation Wind Pressure Humidity
00:00 +10°C° 0 mm 5 mps 744 mmHg 64%
01:00 +9°C° 0 mm 5 mps 744 mmHg 66%
02:00 +10°C° 0 mm 4 mps 744 mmHg 67%
03:00 +10°C° 0 mm 4 mps 744 mmHg 68%
04:00 +8°C° 0 mm 4 mps 743 mmHg 69%
05:00 +10°C° 0 mm 5 mps 743 mmHg 67%
06:00 +12°C° 0 mm 5 mps 743 mmHg 65%
07:00 +14°C° 0 mm 5 mps 743 mmHg 63%
08:00 +16°C° 0 mm 6 mps 743 mmHg 60%
09:00 +18°C° 0 mm 7 mps 743 mmHg 57%
10:00 +20°C° 0 mm 7 mps 743 mmHg 53%
11:00 +21°C° 0 mm 7 mps 742 mmHg 54%
12:00 +22°C° 0 mm 8 mps 742 mmHg 54%
13:00 +23°C° 0 mm 8 mps 742 mmHg 55%
14:00 +23°C° 0 mm 7 mps 743 mmHg 57%
15:00 +22°C° 0 mm 7 mps 743 mmHg 59%
16:00 +22°C° 0 mm 6 mps 743 mmHg 62%
17:00 +21°C° 0 mm 6 mps 743 mmHg 66%
18:00 +19°C° 0 mm 5 mps 743 mmHg 71%
19:00 +18°C° 0 mm 4 mps 743 mmHg 75%
20:00 +17°C° 0 mm 4 mps 743 mmHg 77%
21:00 +15°C° 0 mm 4 mps 743 mmHg 79%
22:00 +15°C° 0 mm 4 mps 743 mmHg 81%
23:00 +14°C° 0 mm 4 mps 742 mmHg 81%

11 May, Tuesday

Time Temperature Precipitation Wind Pressure Humidity
00:00 +14°C° 0 mm 4 mps 742 mmHg 81%
01:00 +14°C° 0 mm 4 mps 742 mmHg 81%
02:00 +13°C° 0 mm 4 mps 741 mmHg 80%
03:00 +13°C° 0 mm 4 mps 741 mmHg 80%
04:00 +13°C° 0 mm 4 mps 740 mmHg 80%
05:00 +15°C° 0 mm 5 mps 740 mmHg 76%
06:00 +16°C° 0 mm 5 mps 740 mmHg 72%
07:00 +17°C° 0 mm 5 mps 740 mmHg 69%
08:00 +20°C° 0 mm 6 mps 740 mmHg 64%
09:00 +22°C° 0 mm 7 mps 740 mmHg 60%
10:00 +24°C° 0 mm 7 mps 740 mmHg 56%
11:00 +24°C° 0 mm 7 mps 740 mmHg 54%
12:00 +26°C° 0 mm 7 mps 740 mmHg 53%
13:00 +26°C° 0 mm 7 mps 740 mmHg 52%
14:00 +26°C° 0 mm 7 mps 740 mmHg 53%
15:00 +26°C° 0 mm 6 mps 740 mmHg 54%
16:00 +26°C° 0 mm 6 mps 739 mmHg 55%
17:00 +23°C° 0 mm 5 mps 739 mmHg 60%
18:00 +22°C° 0 mm 5 mps 739 mmHg 66%
19:00 +20°C° 0 mm 4 mps 739 mmHg 71%
20:00 +19°C° 0 mm 4 mps 739 mmHg 72%
21:00 +18°C° 0 mm 4 mps 739 mmHg 73%
22:00 +18°C° 0 mm 4 mps 739 mmHg 73%
23:00 +17°C° 0 mm 4 mps 739 mmHg 76%

12 May, Wednesday

Time Temperature Precipitation Wind Pressure Humidity
00:00 +16°C° 0 mm 3 mps 739 mmHg 78%
01:00 +14°C° 0 mm 3 mps 738 mmHg 80%
02:00 +14°C° 0 mm 3 mps 738 mmHg 82%
03:00 +14°C° 0 mm 3 mps 738 mmHg 84%
04:00 +13°C° 0 mm 3 mps 738 mmHg 85%
05:00 +16°C° 0 mm 3 mps 738 mmHg 81%
06:00 +17°C° 0 mm 3 mps 738 mmHg 76%
07:00 +19°C° 0 mm 3 mps 738 mmHg 71%
08:00 +20°C° 0 mm 3 mps 738 mmHg 66%
09:00 +22°C° 0 mm 3 mps 738 mmHg 60%
10:00 +24°C° 0 mm 3 mps 738 mmHg 55%
11:00 +25°C° 0 mm 2 mps 738 mmHg 53%
12:00 +25°C° 0 mm 2 mps 737 mmHg 52%
13:00 +26°C° 0 mm 2 mps 737 mmHg 51%
14:00 +25°C° 0.3 mm 2 mps 737 mmHg 57%
15:00 +24°C° 0.3 mm 3 mps 736 mmHg 62%
16:00 +22°C° 0.3 mm 3 mps 736 mmHg 68%
17:00 +20°C° 0.8 mm 4 mps 736 mmHg 74%
18:00 +18°C° 0.8 mm 4 mps 737 mmHg 80%
19:00 +15°C° 0.8 mm 4 mps 737 mmHg 85%
20:00 +14°C° 0 mm 4 mps 737 mmHg 86%
21:00 +13°C° 0 mm 4 mps 737 mmHg 86%
22:00 +13°C° 0 mm 3 mps 737 mmHg 87%
23:00 +12°C° 0 mm 3 mps 737 mmHg 88%

13 May, Thursday

Time Temperature Precipitation Wind Pressure Humidity
00:00 +11°C° 0 mm 3 mps 737 mmHg 89%
01:00 +11°C° 0 mm 3 mps 737 mmHg 91%
02:00 +10°C° 0 mm 3 mps 737 mmHg 91%
03:00 +9°C° 0 mm 3 mps 737 mmHg 91%
04:00 +9°C° 0 mm 3 mps 737 mmHg 91%
05:00 +10°C° 0 mm 3 mps 737 mmHg 87%
06:00 +10°C° 0 mm 3 mps 737 mmHg 82%
07:00 +11°C° 0 mm 3 mps 737 mmHg 78%
08:00 +13°C° 0 mm 4 mps 737 mmHg 72%
09:00 +14°C° 0 mm 4 mps 737 mmHg 66%
10:00 +15°C° 0 mm 4 mps 737 mmHg 59%
11:00 +17°C° 0 mm 4 mps 737 mmHg 55%
12:00 +18°C° 0 mm 4 mps 737 mmHg 52%
13:00 +18°C° 0 mm 3 mps 737 mmHg 48%
14:00 +18°C° 0 mm 4 mps 737 mmHg 52%
15:00 +17°C° 0 mm 4 mps 737 mmHg 57%
16:00 +15°C° 0 mm 4 mps 737 mmHg 61%
17:00 +14°C° 0.1 mm 3 mps 737 mmHg 66%
18:00 +13°C° 0.1 mm 3 mps 737 mmHg 71%
19:00 +13°C° 0.1 mm 2 mps 738 mmHg 75%
20:00 +12°C° 0 mm 2 mps 738 mmHg 78%
21:00 +11°C° 0 mm 1 mps 738 mmHg 81%
22:00 +9°C° 0 mm 0 mps 738 mmHg 84%
23:00 +10°C° 0 mm 1 mps 738 mmHg 84%
Show more

We Need Your Consent

Meteoprog and our Service Providers may store and access personal data such as cookies, device identifiers or other similar technologies on your device and process such data to personalise content and ads, as well as provide social media features and to analyse the traffic.

  • Store and/or access information on your device

    Cookies, device identifiers or other information can be stored or accessed on your device for the purposes indicated above.

  • Personalised ads and content, ad and content measurement, audience insights, and products development

    Ads and content can be personalised based on a profile. More data can be added to better personalise ads and content. Ad and content performance can be measured. Insights about the audience who saw the ads and content can be derived. Such data can be used to develop or improve user’s experience, systems and software.

By clicking ‘I Agree’ you will allow the use of indicated cookies, device identifiers, web beacons or other similar technologies. Your settings can be changed in the browser on your device.

For certain purposes, legitimate interests may be relied on, rather than consent. You can read more about this in our Privacy and Cookie Policy.